Сетл

Великобритания     54°04′02″N   2°16′18″W
темп.,
°C
ветер,
м/с
пор.,
м/с
влажн.,
%
обл.,
%
осадки,
мм/ч
давл.,
гПа
погр.,
м
15 апреля, чт
чт1501:00−1всв22891 0.0 103611
04:00−2всв11894 0.0 103610
07:00−1всв11865 0.0 103613
10:00+5в22550 0.0 1035656
13:00+8вюв23465 0.0 10351408
16:00+9в334874 0.0 10331701
19:00+7в34695 0.0 1033116
22:00+1всв22845 0.0 103421
16 апреля, пт
пт1601:000в11875 0.0 103410
04:00−1в11865 0.0 103310
07:000в11825 0.0 103310
10:00+6ю10645 0.0 1033577
13:00+10ю11546 0.0 10311369
16:00+10юз115379 0.0 10301423
19:00+7ссз227640 0.1 103069
22:00+4в228299 0.0 103116
17 апреля, сб
сб1701:00+1всв228579 0.0 103113
04:000вюв118628 0.0 103110
07:00+1вюв118458 0.0 103110
10:00+7юв226749 0.0 1030532
13:00+10ю2356100 0.0 10281379
16:00+11ю235313 0.0 10261492
19:00+9юз227082 0.0 102539
22:00+5ююв2277100 0.0 102610
18 апреля, вс
вс1801:00+4ю1175100 0.0 102510
04:00+4зюз1181100 0.0 102510
07:00+4ю1283100 0.0 102495
10:00+6ююз2580100 0.1 1024514
13:00+6ююз2485100 0.6 1024346
16:00+7ююз2480100 0.0 1023399
19:00+7ююз1282100 0.0 1023205
22:00+6ююв1183100 0.0 102314
19 апреля, пн
пн1901:00+6ююв1185100 0.0 102218
04:00+6ююв1187100 0.0 102131
07:00+6ююв1287100 0.0 102074
10:00+8ю2475100 0.0 1020415
13:00+11ююз5568100 0.0 10181111
16:00+11ююз4567100 0.0 10171212
19:00+10ю2475100 0.1 1017122
22:00+7зсз2381100 0.0 101869